GFSNGP_2pvu_pres_132.txt.gz
Presure
197 202 178 204 207 175 174 176 202 197 201 199 198 222 200 222 218 226 216 228 234 233 238 247 249 259 286 294 299 296 292 201 295 329 312 292 298 282 294 280 296 276 273 256
195 209 202 202 209 209 206 205 111 208 206 221 215 133 95 212 221 221 226 227 237 240 247 249 258 279 296 255 301 302 299 306 326 303 291 303 283 284 312 314 293 278 267 254
220 205 202 219 208 202 204 207 208 220 210 206 218 215 211 224 232 231 227 239 239 243 253 255 274 300 300 317 309 311 333 315 295 295 299 287 284 284 298 307 269 288 266 260
234 219 215 215 217 213 215 213 212 146 229 228 229 221 228 236 239 234 235 203 224 256 213 287 296 303 326 315 328 324 303 291 293 287 276 275 281 282 278 287 283 286 276 262
253 248 252 248 231 230 232 231 133 229 232 232 232 236 244 244 241 247 251 164 211 163 292 298 309 335 323 335 312 296 292 289 284 277 276 270 267 268 266 262 282 272 302 269
319 301 275 266 249 250 249 253 233 238 235 237 247 252 252 256 247 151 176 148 260 285 299 318 328 357 342 304 289 292 280 283 274 272 268 264 265 263 264 254 263 265 273 286
294 295 308 294 289 291 289 293 266 187 191 164 263 266 268 276 225 241 154 277 301 301 328 345 357 326 295 289 288 277 276 272 267 264 262 262 261 261 262 261 262 252 254 263
298 290 288 278 289 280 279 285 289 283 282 280 276 279 272 273 246 248 300 302 307 341 368 339 309 291 292 283 273 267 266 263 260 263 276 323 354 350 366 360 325 267 264 255
288 289 291 300 298 291 293 296 296 295 294 291 287 287 288 286 304 299 306 342 343 355 325 299 292 291 273 271 262 264 254 258 268 293 336 328 329 329 322 324 332 334 327 306
303 300 298 301 303 299 294 299 302 300 300 300 302 308 307 309 314 337 329 339 341 313 294 292 286 270 268 262 253 253 259 279 343 323 309 304 303 298 295 292 293 297 299 301
305 302 301 301 307 307 307 303 305 312 314 314 314 329 345 337 332 335 324 330 306 290 287 280 271 260 260 251 251 260 285 318 314 300 289 289 279 278 283 280 280 277 277 277
316 315 312 310 311 313 309 314 332 351 358 358 341 331 329 335 336 331 340 303 285 284 271 269 263 256 251 249 254 284 303 312 296 288 279 281 272 273 276 271 264 260 261 261
311 257 319 336 341 328 307 149 157 342 337 339 343 355 378 332 344 318 294 287 280 268 254 264 256 250 246 249 263 310 306 299 292 282 279 275 272 257 261 260 261 261 264 262
319 321 341 322 335 331 323 326 334 330 328 327 331 341 354 338 302 290 281 277 264 258 263 254 249 247 245 245 263 277 296 287 290 277 271 266 269 261 260 256 257 257 258 265
310 327 320 327 323 321 323 321 317 308 303 301 298 299 290 288 286 287 270 260 265 264 254 251 246 243 244 249 255 260 274 275 279 279 276 271 270 273 271 267 271 267 264 268
313 305 317 311 308 319 310 302 295 291 287 286 286 284 291 296 305 269 259 274 263 255 252 248 244 242 245 248 252 252 258 256 264 268 266 268 272 273 270 269 267 260 260 263
310 308 315 315 306 298 291 287 284 284 279 281 278 285 277 271 266 280 272 263 259 251 250 247 244 242 243 244 252 250 248 254 253 251 256 258 260 263 264 263 264 260 263 256
306 297 294 290 285 283 279 276 276 275 276 277 281 271 263 271 277 270 263 255 251 250 243 246 249 246 246 242 249 249 247 245 249 250 252 253 253 253 257 258 260 261 260 257
285 283 279 278 276 272 271 271 270 279 276 277 265 260 273 280 270 264 257 249 251 249 248 248 250 248 246 243 247 249 248 243 249 251 247 249 252 252 258 259 258 256 254 258
272 274 274 272 271 267 261 261 271 276 272 264 261 267 278 275 264 259 259 251 249 247 250 247 248 245 243 250 251 251 249 248 252 250 250 250 254 253 255 258 257 260 261 255
262 265 267 269 269 269 270 271 271 270 268 267 265 263 264 273 268 262 257 254 253 252 253 252 251 250 249 252 253 254 253 253 251 253 251 253 254 253 257 260 259 255 257 265
253 258 259 260 262 265 271 274 276 277 278 279 278 274 272 269 266 265 264 263 262 259 258 255 254 255 254 254 253 254 255 255 253 252 257 256 254 259 261 260 264 267 273 283
266 261 264 265 270 269 271 266 265 268 268 269 275 276 277 277 277 274 272 272 269 266 261 259 259 257 256 258 260 259 255 254 255 260 258 256 262 263 266 271 277 296 308 311
263 278 270 263 260 260 263 285 355 358 381 379 386 443 452 302 283 276 272 271 270 269 268 266 264 264 263 260 258 257 260 262 260 258 264 267 270 275 285 308 311 316 317 315
269 261 257 260 262 260 276 325 344 342 344 361 366 379 414 440 461 411 358 307 286 279 276 273 271 269 268 268 266 265 266 268 270 273 278 290 310 312 319 321 318 313 314 313
259 258 258 256 260 263 271 300 313 315 325 330 330 348 354 371 396 404 411 424 380 342 339 314 311 307 287 285 297 299 297 305 314 321 322 321 318 317 317 317 314 307 300 298
259 256 252 259 259 265 272 287 295 301 309 309 314 321 320 337 340 346 364 375 371 373 373 370 366 363 358 354 346 338 338 336 330 324 321 320 315 311 306 298 296 296 293 300

GFSNGP_2pvu_pres_138.txt.gz
Presure
210 209 200 214 217 235 228 230 221 185 216 200 216 182 219 239 215 228 200 192 213 220 211 189 206 205 201 220 233 229 226 238 243 253 252 259 291 292 316 361 331 309 307 305
226 243 216 211 223 221 227 211 231 222 198 178 226 216 217 193 173 145 186 204 240 218 211 189 227 221 220 224 231 241 254 250 244 251 282 216 290 306 366 333 307 304 302 295
245 241 220 222 223 163 219 224 223 220 234 220 159 219 214 211 233 180 207 97 194 219 220 217 219 224 224 236 263 265 264 256 255 171 281 291 304 368 336 307 297 294 291 287
255 246 233 232 236 226 219 235 209 212 218 218 221 207 219 212 145 213 206 214 217 217 222 219 224 227 260 271 261 257 267 278 153 233 291 308 366 333 307 297 295 287 277 278
294 252 250 245 234 236 242 237 229 228 218 217 219 221 227 224 219 221 228 230 225 226 226 224 252 275 282 266 269 269 264 243 273 289 304 360 327 310 298 294 284 273 272 266
307 277 279 263 251 253 243 242 239 241 251 255 255 298 302 294 291 274 260 252 290 291 274 267 277 277 269 277 259 158 278 281 300 302 356 315 297 293 283 280 273 270 268 266
336 334 331 313 280 276 277 263 279 277 293 295 297 304 312 316 195 106 291 306 256 288 274 282 273 266 271 268 273 272 277 294 305 357 316 297 288 280 268 268 264 262 264 264
323 291 334 306 296 293 289 286 284 296 292 299 292 306 308 311 302 294 295 293 286 275 286 276 274 277 271 279 277 277 301 310 359 318 298 284 275 265 263 259 276 337 339 340
308 322 326 331 345 325 307 308 311 307 302 297 310 315 304 302 296 290 284 286 292 282 277 282 280 272 277 285 285 311 321 355 316 296 279 271 263 259 259 289 326 318 313 313
294 305 306 216 314 338 320 347 340 328 311 299 296 294 298 300 299 295 286 288 275 285 286 277 280 283 296 307 319 345 337 311 293 278 268 260 256 262 300 321 313 303 293 300
304 287 301 306 310 308 310 313 315 317 315 314 307 299 297 296 294 292 296 297 295 291 288 292 311 326 349 343 345 331 304 289 277 266 257 254 263 294 311 300 290 288 282 280
287 199 259 296 320 321 316 300 307 318 314 311 312 312 317 317 319 319 323 329 336 339 360 358 333 338 332 342 339 304 287 274 267 255 253 256 274 313 302 288 288 280 273 272
286 302 305 296 322 311 309 310 322 318 307 317 324 339 337 326 322 340 154 330 340 341 341 353 335 331 329 330 301 288 275 266 257 251 249 256 307 303 300 284 285 281 276 268
303 309 296 330 330 305 315 305 300 306 310 305 317 322 319 325 321 325 327 324 327 334 343 345 329 327 320 295 287 276 265 257 248 250 249 253 259 300 288 298 281 288 278 276
321 324 339 362 358 284 310 311 313 321 326 327 327 330 319 322 321 311 309 317 338 351 355 351 327 304 290 283 279 267 259 252 250 247 247 250 256 254 261 263 263 263 263 264
420 361 350 339 322 316 317 326 310 323 319 322 325 325 326 308 300 297 292 295 301 307 305 300 292 282 277 280 268 259 259 249 250 245 244 246 249 252 251 250 248 250 252 253
330 320 317 320 318 310 327 319 316 313 320 317 316 305 298 292 289 287 281 286 282 285 285 279 277 278 276 266 262 260 255 250 248 244 246 245 245 246 248 249 249 248 247 247
308 306 309 319 318 317 312 311 307 304 299 297 293 287 285 283 276 286 292 285 290 301 284 286 276 270 264 266 258 261 253 250 250 250 248 247 248 248 246 245 247 249 251 252
309 319 312 311 305 296 291 288 286 284 281 280 280 282 279 278 282 281 278 274 270 275 286 268 269 264 265 268 264 262 254 251 249 247 246 248 247 246 243 243 247 249 249 252
306 302 295 288 286 283 280 277 275 274 273 273 274 274 276 282 273 282 283 276 271 265 262 271 273 276 274 267 265 260 251 247 247 245 246 244 243 245 249 250 251 251 251 256
283 280 277 276 274 273 269 269 267 264 264 265 268 271 273 275 277 281 282 278 271 266 267 275 280 276 272 271 261 256 251 250 250 251 251 250 250 250 251 254 254 255 259 255
272 270 265 263 262 258 255 260 266 267 267 266 267 269 272 273 274 275 277 279 280 277 273 268 269 274 277 270 265 261 259 257 254 254 254 254 255 256 258 259 259 260 262 263
260 259 254 256 261 261 257 265 265 261 260 261 259 268 336 340 361 376 447 538 355 280 274 275 277 275 272 269 267 266 266 264 263 261 261 261 263 262 262 265 266 264 263 265
260 262 256 254 264 267 263 261 258 253 257 263 268 279 309 317 328 331 355 378 501 460 386 356 283 275 270 269 269 269 269 269 269 268 266 266 266 265 264 265 266 269 272 275
257 262 267 268 268 266 264 257 259 260 259 263 270 276 293 304 312 312 331 324 345 411 476 415 367 352 327 297 284 277 274 272 271 270 271 271 272 273 276 279 284 296 320 331
261 274 275 272 271 265 261 259 256 255 258 259 267 269 285 292 299 310 308 314 324 320 333 388 432 402 367 346 337 336 338 339 336 315 310 312 325 326 325 339 350 340 334 325
273 275 276 276 275 266 259 258 254 255 259 260 267 266 284 286 291 297 303 304 306 311 316 311 320 325 346 369 381 386 382 377 373 371 363 356 349 342 334 326 318 311 307 304

GFSNGP_2pvu_pres_144.txt.gz
Presure
230 258 245 256 250 249 230 216 206 233 243 230 218 220 218 230 223 233 240 214 217 227 215 224 225 235 217 200 219 192 225 231 214 225 236 222 227 227 226 228 227 240 240 264
397 300 370 370 120 351 285 313 295 237 251 272 258 234 242 212 234 230 219 225 214 121 215 221 216 235 228 210 212 223 212 216 239 225 225 223 222 225 229 223 240 241 275 275
369 357 355 372 375 351 348 344 334 326 307 310 305 281 279 259 240 228 222 216 216 221 221 222 216 208 213 214 234 216 226 233 225 215 225 224 231 229 232 240 250 285 282 296
344 335 337 101 333 339 337 377 326 324 324 317 311 294 285 270 280 247 229 224 224 224 218 215 216 224 212 216 222 222 223 216 227 227 217 222 230 226 226 296 263 298 285 289
323 328 340 341 329 314 313 313 316 313 312 315 310 313 315 305 292 265 257 253 250 247 235 230 224 231 222 225 223 224 232 230 240 235 233 144 226 239 286 287 278 277 297 283
317 315 315 318 323 316 310 300 301 312 288 291 296 294 305 290 293 288 279 271 271 253 242 237 241 235 226 225 234 240 236 240 244 232 240 258 318 302 292 287 294 296 280 293
330 317 334 323 329 324 305 300 307 306 291 287 286 287 283 288 286 289 293 289 277 263 253 250 202 241 243 252 257 253 249 243 251 287 275 263 298 294 294 294 285 279 290 324
299 307 299 286 308 309 307 304 304 294 299 295 276 210 289 285 286 281 283 276 266 265 264 267 258 265 277 267 269 279 289 282 274 286 285 318 298 280 280 281 287 291 306 322
294 294 295 305 321 317 310 314 305 292 292 298 305 281 288 275 277 285 283 286 274 274 273 275 280 288 289 277 276 283 277 284 278 282 288 294 292 292 295 282 290 328 327 287
288 302 277 282 289 269 292 290 293 294 307 308 308 300 291 289 271 272 276 277 273 278 274 278 275 279 278 270 272 278 276 271 272 286 309 298 287 285 288 301 337 328 289 273
290 295 211 299 293 303 289 284 226 288 178 250 313 322 335 323 308 285 280 273 278 275 277 270 266 267 273 271 268 266 268 272 290 293 304 292 293 306 338 348 327 292 269 262
301 299 298 289 278 280 283 294 306 297 299 308 315 314 315 326 337 323 295 291 293 294 276 271 273 274 268 269 265 273 283 300 315 308 302 329 346 341 335 331 295 269 260 254
278 278 274 278 276 229 157 300 300 293 300 295 293 303 315 327 309 333 330 331 335 334 315 287 281 276 272 288 324 330 331 339 332 331 337 341 332 332 328 297 270 262 254 254
276 285 267 289 275 281 307 299 289 288 199 319 307 314 312 336 315 321 326 321 316 314 317 321 326 336 336 336 338 339 333 328 325 335 339 333 334 322 300 273 263 254 251 248
293 291 283 289 304 306 301 302 310 318 315 333 350 371 322 325 322 319 312 318 324 327 320 325 332 334 328 317 333 349 352 345 335 339 327 325 318 301 277 265 259 252 249 248
289 295 291 281 293 299 306 311 341 385 399 370 347 344 326 319 310 314 327 339 329 334 340 335 320 305 298 300 310 334 344 340 327 327 321 315 298 284 269 261 256 250 249 249
298 281 288 304 311 353 369 363 354 349 332 326 327 318 312 312 317 323 322 323 327 325 313 303 294 293 289 285 293 296 311 314 312 309 310 293 286 274 264 260 256 252 251 250
295 305 316 343 369 335 330 326 320 319 320 321 316 316 317 311 307 304 302 299 296 294 291 290 282 288 284 291 295 280 284 283 284 306 288 285 277 272 263 259 254 256 242 247
302 329 348 316 315 320 319 314 316 316 315 306 296 289 287 285 284 283 283 283 283 285 285 287 289 290 288 287 294 298 298 286 281 283 279 272 274 270 265 259 258 256 253 252
327 301 305 321 320 312 308 301 296 289 286 283 278 277 276 275 274 274 271 274 277 280 284 285 280 282 286 282 275 277 286 282 266 265 265 263 267 269 263 263 262 261 259 258
308 313 304 300 293 288 286 282 277 275 275 273 271 267 264 265 267 267 268 269 272 282 282 275 275 275 278 282 283 277 273 266 263 262 268 274 273 269 268 265 264 264 265 264
302 291 284 283 278 275 275 271 269 264 263 264 267 267 265 263 262 264 267 270 278 324 327 332 341 356 417 319 274 271 276 273 269 266 265 266 266 267 272 275 274 272 270 269
281 277 275 272 271 266 262 260 263 265 266 264 263 262 260 260 260 262 257 255 269 268 301 309 322 330 341 445 400 372 330 280 273 270 268 269 267 267 266 265 265 266 267 267
270 268 266 261 259 261 260 260 267 269 264 263 256 261 254 257 257 255 259 264 269 278 294 302 311 318 317 325 340 413 381 361 347 326 283 277 273 270 267 267 266 265 266 266
260 258 260 259 260 266 269 269 268 266 263 260 260 258 260 255 256 259 263 255 269 291 284 301 309 310 313 318 319 321 326 398 376 358 346 341 333 328 300 293 288 287 288 288
258 258 262 268 272 274 275 276 277 277 274 268 263 257 259 256 262 263 268 269 278 279 289 296 299 303 310 318 325 331 326 315 315 357 380 371 365 356 349 347 351 355 353 354
260 254 268 270 271 271 272 270 267 264 262 261 251 263 257 257 262 264 271 272 277 282 289 293 299 309 321 333 340 341 332 323 313 307 307 305 306 310 312 314 313 311 309 307

GFSNGP_2pvu_pres_147.txt.gz
Presure
275 261 269 265 234 220 233 227 245 240 234 237 242 245 239 243 239 228 219 222 229 224 220 213 220 216 218 212 223 214 238 232 227 236 216 194 225 230 221 224 220 228 229 231
273 269 269 286 287 271 269 267 266 260 286 280 279 293 275 276 259 286 244 238 244 227 219 220 216 219 211 213 216 232 226 238 212 217 181 222 213 223 235 221 227 238 231 224
271 294 296 170 249 84 128 318 375 373 363 363 365 360 364 376 348 350 324 304 274 250 238 242 237 226 229 229 227 221 220 224 221 224 215 217 222 221 224 228 233 228 233 240
305 318 311 318 326 379 366 357 349 352 356 355 356 352 344 353 363 341 316 320 324 298 277 260 248 245 242 228 222 221 221 217 217 213 216 216 226 233 233 230 232 233 226 245
304 316 370 387 364 346 335 341 327 334 335 330 328 336 327 319 319 321 320 309 299 312 306 287 276 267 255 242 242 227 222 221 218 221 224 226 244 251 234 236 241 243 263 264
365 351 354 355 331 319 322 329 328 326 327 323 320 320 330 310 309 316 313 298 297 290 287 273 263 265 261 248 239 240 247 245 253 245 246 255 257 270 248 255 219 262 281 274
341 335 346 324 313 310 323 318 322 313 311 314 312 316 308 310 300 295 293 303 297 258 282 293 274 274 266 260 208 249 247 250 255 261 250 249 253 267 260 258 285 278 272 270
316 339 325 321 317 309 314 316 312 309 306 306 303 305 308 302 307 291 284 281 271 273 273 217 277 278 272 266 264 259 269 262 263 266 267 262 266 278 281 267 268 269 286 278
323 322 312 294 307 306 296 286 314 302 298 300 311 311 320 315 299 295 289 292 285 278 275 273 278 265 269 265 267 261 262 273 264 267 259 261 268 297 267 264 268 266 277 289
328 310 314 297 303 294 289 286 282 288 301 305 300 308 316 323 312 299 290 284 285 273 275 278 280 264 262 262 257 270 260 252 252 256 260 267 266 280 267 266 273 273 289 310
314 299 291 291 284 283 211 283 227 284 285 219 245 312 310 309 324 210 298 308 273 287 281 285 277 274 272 269 266 276 275 269 274 269 269 275 278 270 277 271 272 315 329 335
305 302 286 285 278 294 189 291 214 303 171 288 288 296 323 273 304 194 319 332 342 334 354 297 301 285 284 281 273 272 269 275 281 278 282 270 266 271 277 293 327 333 335 336
300 300 293 284 280 295 285 283 289 269 272 152 282 228 316 301 301 301 311 318 314 311 339 326 327 331 328 322 283 277 278 281 310 278 304 288 272 338 335 333 332 340 333 333
280 282 299 292 287 283 285 288 273 271 276 309 240 318 311 302 193 301 280 310 328 335 321 304 311 317 320 318 317 317 320 319 324 337 336 332 325 321 317 318 331 328 324 308
276 274 282 272 274 300 293 295 301 296 300 306 315 310 321 331 338 389 375 323 320 317 313 317 315 314 312 310 310 309 318 327 319 326 339 347 344 332 322 328 319 323 311 274
273 274 282 285 292 290 287 288 288 296 320 330 395 374 377 376 355 334 322 322 314 312 315 317 326 323 334 332 332 331 311 304 297 311 337 344 335 337 333 318 316 310 286 266
283 279 286 284 283 274 292 298 318 369 360 349 341 330 325 322 317 310 315 317 323 324 329 328 328 328 322 314 305 300 294 285 293 291 300 311 315 320 322 308 307 288 269 264
284 276 267 285 275 274 300 341 326 327 324 319 314 315 311 315 320 313 306 303 302 302 301 300 298 293 294 290 284 285 284 291 297 280 280 278 284 296 312 298 287 283 271 264
282 292 287 301 303 314 326 324 314 315 318 317 311 303 297 293 289 287 286 284 284 283 283 284 287 287 287 286 287 289 286 283 289 290 292 282 278 285 292 278 284 277 271 264
325 378 352 286 328 314 319 314 311 301 292 287 285 283 281 279 277 276 274 273 270 269 268 270 272 273 274 276 278 283 283 283 280 272 275 286 280 275 271 267 268 273 271 270
310 324 318 308 319 309 296 288 277 278 278 276 275 273 269 265 265 262 263 263 267 271 273 278 312 324 329 339 342 312 286 275 273 278 278 273 270 264 263 264 268 271 272 271
316 309 308 300 287 280 276 274 273 273 268 264 263 262 262 261 260 259 260 262 262 262 264 271 269 282 302 309 324 328 338 386 375 317 282 272 271 272 269 266 265 265 265 265
306 290 282 276 275 271 271 267 262 260 257 252 262 261 261 257 259 258 259 259 255 260 267 265 274 290 285 307 315 315 318 322 345 383 364 342 305 286 277 273 270 268 266 266
279 273 274 270 268 264 259 257 253 255 264 263 259 259 254 261 253 254 255 261 256 267 263 266 278 277 294 300 304 307 311 318 326 322 387 367 353 342 328 308 293 286 280 278
273 269 264 262 257 258 257 258 266 264 261 263 262 256 258 258 256 259 262 258 271 262 277 277 280 289 293 297 305 315 323 332 335 331 332 316 362 358 348 341 335 330 326 326
262 260 256 257 259 269 273 272 273 274 274 273 268 263 262 257 258 264 256 272 257 274 271 285 288 289 295 301 315 332 351 355 349 340 331 325 318 313 317 345 365 363 362 360
258 257 259 265 263 270 269 268 267 266 267 267 266 261 259 253 253 260 276 264 272 273 282 286 287 295 298 315 352 367 360 354 349 341 335 327 322 318 314 309 305 304 303 302

GFSNGP_2pvu_pres_150.txt.gz
Presure
253 253 236 234 233 247 248 246 254 264 244 250 266 251 289 284 279 285 282 255 225 233 235 244 235 228 236 223 140 217 225 228 222 220 214 212 212 210 231 194 219 192 221 230
277 278 274 279 277 273 268 247 257 273 274 272 284 285 291 291 289 303 307 300 281 272 269 295 279 241 238 233 228 242 227 226 221 225 218 217 215 236 194 224 232 227 223 223
272 270 274 281 274 282 281 272 274 272 273 278 273 293 305 327 331 346 385 387 392 395 384 351 303 286 270 266 241 230 243 230 172 226 230 228 234 237 227 187 221 224 237 225
276 264 264 274 281 176 155 274 270 283 300 318 319 323 368 373 374 372 376 373 379 381 366 367 336 356 298 320 290 265 243 229 226 225 229 222 221 219 222 229 230 229 235 228
270 274 287 288 255 289 83 309 303 310 312 354 356 352 348 351 352 351 343 344 345 363 333 288 277 292 331 320 294 292 263 243 244 236 227 226 226 232 232 240 237 246 245 235
296 290 290 303 297 306 302 310 370 355 346 337 330 328 324 325 338 346 331 317 322 327 310 281 276 292 285 258 247 245 253 260 261 248 244 239 235 235 240 242 248 234 236 254
296 295 312 315 313 367 363 349 343 334 323 314 312 315 311 321 329 345 335 313 309 314 317 298 298 274 285 276 274 258 241 250 256 252 249 253 251 248 243 236 259 256 249 258
304 309 322 362 373 348 333 330 326 314 309 307 306 314 313 316 315 314 316 311 304 304 301 302 277 278 264 258 186 252 246 247 245 216 244 249 251 251 256 258 254 255 267 275
359 363 347 331 318 314 308 305 321 319 316 307 303 300 295 301 328 319 322 325 305 295 299 283 270 286 262 248 256 255 249 244 243 240 249 251 250 248 252 255 257 261 269 268
352 338 334 322 324 307 305 305 315 305 306 297 291 294 295 292 303 308 315 327 314 299 293 296 290 282 276 260 260 262 253 259 257 256 258 261 261 256 254 257 255 271 265 268
346 329 329 346 337 322 308 300 299 294 294 205 285 251 293 299 220 239 303 313 335 320 320 180 290 280 276 272 264 265 262 260 271 270 270 261 262 270 264 266 264 273 282 269
346 341 328 318 310 299 295 293 183 196 261 302 293 158 289 289 285 287 285 289 308 331 329 216 290 290 286 288 274 269 271 266 266 262 270 270 262 261 266 265 268 272 267 274
326 319 312 309 295 294 283 293 295 293 260 295 291 286 283 157 162 281 287 292 324 328 307 317 328 332 303 286 280 275 271 273 273 273 273 274 270 273 278 280 278 276 296 319
309 305 294 305 304 297 294 290 290 294 276 275 282 288 301 296 276 314 323 321 321 322 312 318 307 324 327 310 323 324 323 324 322 292 281 296 288 290 304 334 335 332 324 317
293 288 291 292 292 294 296 298 280 290 287 295 298 315 317 365 396 400 405 392 380 349 352 351 331 320 323 329 323 325 322 319 322 324 325 325 328 333 320 321 353 348 340 326
283 303 294 282 276 284 271 281 281 289 288 289 318 365 357 358 359 364 361 355 346 337 328 323 322 322 322 322 322 317 318 322 327 326 325 334 307 295 299 333 333 334 327 320
297 284 292 281 284 291 287 287 295 290 298 322 346 326 322 323 320 319 317 319 323 324 322 322 321 324 329 334 334 329 332 334 333 316 300 292 283 288 291 293 305 313 315 316
300 296 279 282 289 296 288 288 285 297 321 329 323 311 312 312 315 314 309 304 302 299 297 295 295 295 297 295 293 293 291 286 284 283 282 283 289 294 279 279 279 291 300 304
276 279 283 288 300 303 310 294 310 329 316 321 317 306 299 294 290 288 288 286 283 280 278 280 280 280 280 281 283 285 285 284 282 285 287 283 280 285 288 297 285 280 288 313
282 293 313 322 384 348 323 352 328 317 307 296 288 285 283 282 278 276 274 272 268 267 267 268 269 272 311 312 312 307 298 289 281 275 274 277 280 280 276 274 278 288 283 279
291 299 300 330 317 315 322 319 302 287 279 279 277 274 272 267 264 262 261 261 261 256 256 258 264 272 272 269 266 292 298 307 319 321 330 315 290 277 271 272 275 273 271 267
297 304 314 316 314 305 293 286 277 276 273 270 266 262 260 258 259 257 254 253 255 259 262 265 263 266 267 266 286 282 286 303 312 317 317 319 328 361 327 296 283 275 271 270
311 307 305 293 286 282 278 274 270 264 261 258 252 253 258 259 256 252 257 256 259 261 264 260 268 269 268 282 278 281 294 299 303 310 314 314 319 318 344 356 336 316 299 289
313 294 285 278 274 271 267 262 257 254 253 251 260 261 259 261 256 261 261 257 258 263 259 271 263 269 277 279 293 296 302 304 310 324 337 342 345 333 330 317 362 350 342 331
286 275 273 268 264 260 257 253 256 249 260 264 262 266 268 266 263 260 257 257 265 258 279 264 275 280 283 297 301 303 305 321 355 375 366 358 349 341 333 328 322 312 320 349
274 270 263 261 253 254 252 254 267 268 268 272 271 268 264 258 259 260 256 252 256 258 263 277 283 289 295 297 301 304 332 378 368 361 356 352 348 340 335 328 323 320 315 312
266 263 255 254 252 256 269 272 267 269 266 265 264 260 259 260 258 251 252 253 258 259 268 274 290 294 295 297 304 333 372 361 355 351 347 345 343 340 337 332 327 324 321 318